{"data":{"norad_id":51654,"intl_designator":"2022-012AJ","name":"ONEWEB-0474","alt_names":[],"object_type":"PAYLOAD","status":"ACTIVE","operator":null,"country":"UK","launch_date":"2022-02-10","launch_site_code":"FRGUI","launch_vehicle":null,"mission":null,"orbit_class":"UNKNOWN","rcs_meters":null,"size_class":null,"mass_kg":null,"dimensions":null,"purposes":["comms"],"wikipedia_slug":null,"has_3d_model":false,"image_url":null,"decayed_at":null,"tle_current":{"epoch":"2026-05-25T04:27:00.506592Z","epoch_age_seconds":55147,"freshness":"FRESH","line1":"1 51654U 22012AJ  26145.18542253 -.00000265  00000+0 -79458-3 0  9996","line2":"2 51654  87.8859  40.8379 0001950  70.9253 289.2085 13.10371072206287","mean_motion":13.10371072,"eccentricity":0.000195,"inclination_deg":87.8859,"raan_deg":40.8379,"arg_perigee_deg":70.9253,"mean_anomaly_deg":289.2085,"bstar":-0.00079458,"rev_number":20628,"period_min":109.89253584499,"perigee_km":1220.2419249695,"apogee_km":1223.2058707197,"semimajor_km":7599.8608978446,"source":"CELESTRAK","updated_at":"2026-05-25T13:38:22.583315Z"}}}